CAPE
0 0 0 0 0 0 0 0 0 0 0 0 0 0 0 0 0 0 0 0 0 0 0 0 0 0 0 0 0 0 0 0 7 147 302 60 29 44 83 77 51 31 22 0 14 0 5
1 0 0 0 0 0 0 0 0 0 0 0 0 0 0 0 0 0 0 0 0 0 0 0 0 0 0 0 0 0 0 0 100 246 491 417 96 62 131 13 10 34 17 0 1 0 4
1 0 0 0 0 0 0 0 0 0 0 0 0 0 0 0 0 0 0 0 0 0 0 0 0 0 0 0 0 0 0 0 51 159 287 437 267 119 52 49 39 34 0 1 1 0 0
0 0 0 0 0 0 0 1 1 0 0 0 0 0 0 0 0 0 0 0 0 0 0 0 0 0 0 0 0 0 0 0 8 104 286 343 263 219 43 31 27 39 7 7 12 0 0
0 0 0 0 0 0 0 0 0 0 0 0 0 0 0 0 0 0 0 0 0 0 0 0 0 0 0 0 0 0 0 0 0 0 0 129 93 35 129 29 23 24 21 13 27 75 0
0 0 0 0 0 0 0 0 0 0 0 0 0 0 0 0 0 0 0 0 0 0 0 0 0 0 0 0 0 0 0 0 0 0 0 0 2 21 3 0 0 2 12 59 43 81 8
0 0 0 0 0 0 0 0 0 0 0 0 0 0 0 0 0 0 0 0 0 0 0 0 0 0 0 0 0 0 0 0 0 0 0 0 0 0 0 2 8 27 36 0 1 53 169
0 0 0 0 0 0 0 0 0 0 0 0 0 0 0 0 0 0 0 0 0 0 0 0 0 0 0 0 0 0 0 0 0 0 0 0 6 5 1 6 19 26 63 11 0 33 201
0 1 0 0 0 0 0 0 0 0 0 0 0 0 0 0 0 0 0 0 0 0 0 0 0 0 0 0 0 0 0 0 0 0 0 2 14 0 0 0 17 14 14 48 0 85 67
1 0 1 0 0 0 0 0 0 0 0 0 0 0 0 0 0 0 0 0 0 0 0 0 0 0 0 0 0 0 0 0 0 0 0 0 0 0 0 0 9 0 2 34 57 139 61
1 1 1 0 0 0 0 0 0 0 0 0 0 0 0 0 0 0 0 0 0 0 0 0 0 0 0 0 0 0 0 0 0 0 0 0 0 0 0 0 0 0 0 14 26 109 86
1 0 1 0 1 0 0 0 0 0 0 0 0 0 0 0 0 0 0 0 0 0 0 0 0 0 0 0 0 0 0 0 0 0 0 0 0 0 0 0 0 0 0 0 0 0 0
2 0 1 0 0 0 0 0 0 0 0 0 0 0 0 0 0 0 0 0 0 0 0 0 0 0 0 0 0 0 0 0 0 0 0 0 0 0 0 0 0 0 0 0 0 0 0
1 2 1 1 0 0 0 0 0 0 0 0 0 0 0 0 0 0 0 0 0 0 0 0 0 0 0 0 0 0 0 0 0 0 0 0 0 0 0 0 0 0 0 0 0 0 0
1 0 1 1 0 0 0 0 0 0 0 0 0 0 0 0 0 0 0 0 0 0 0 0 0 0 0 0 0 0 0 0 0 0 0 0 0 0 0 0 0 0 0 0 0 0 0
1 1 0 1 1 0 1 0 0 0 0 0 0 0 0 0 0 0 0 0 0 0 0 0 0 0 0 0 0 0 0 0 0 0 0 0 0 0 0 0 0 0 0 0 0 0 0
0 0 0 2 1 2 0 0 0 0 0 0 0 0 0 0 0 0 0 0 0 0 0 0 0 0 0 0 0 0 0 0 0 0 0 0 0 0 0 0 0 0 0 0 0 0 0
1 0 0 1 2 2 0 0 0 0 0 0 0 0 0 0 0 0 0 0 0 0 0 0 0 0 0 0 0 0 0 0 0 0 0 0 0 0 0 0 0 0 0 0 0 0 0
0 0 0 2 1 1 0 0 0 0 2 0 0 0 0 0 0 0 0 0 0 0 0 0 0 0 0 0 0 0 0 0 0 0 0 0 0 0 0 0 0 0 0 0 0 0 0
0 0 0 2 1 1 1 0 0 0 0 0 0 0 0 0 0 0 0 0 0 0 0 0 0 0 0 0 0 0 0 0 0 0 0 0 0 0 0 0 0 0 0 0 0 0 0
0 0 1 2 1 0 2 0 0 0 0 0 0 0 0 0 0 0 0 0 0 0 0 0 0 0 0 0 0 0 0 0 0 0 0 0 0 0 0 0 0 0 0 0 0 0 0
1 0 0 2 1 0 2 0 0 0 0 0 0 0 0 0 0 0 0 0 0 0 0 0 0 0 0 0 0 0 0 0 0 0 0 0 0 0 0 0 0 0 0 0 0 0 0
0 0 0 0 2 0 1 2 0 0 0 0 0 0 0 0 0 0 0 0 0 0 0 0 0 0 0 0 0 0 0 0 0 0 0 0 0 0 0 0 0 0 0 0 0 0 0
0 0 2 1 2 0 0 2 1 0 0 0 0 0 0 0 0 0 0 0 0 0 0 0 0 0 0 0 0 0 0 0 0 0 0 0 0 0 0 0 0 0 0 0 0 0 7
1 0 1 3 3 0 0 1 1 0 0 0 0 0 0 0 0 0 0 0 0 0 0 0 0 0 0 0 0 0 0 0 0 0 0 0 0 0 0 0 0 0 0 0 0 0 0
1 2 1 2 3 4 3 2 1 0 0 0 0 0 0 0 0 0 0 0 0 0 0 0 0 0 0 0 0 0 0 0 0 0 0 0 0 0 0 0 0 0 0 0 0 0 0
1 2 3 3 2 4 4 3 2 0 0 0 0 0 0 0 0 0 0 0 0 0 0 0 0 0 0 0 0 0 0 0 0 0 0 0 0 0 0 0 0 0 0 0 0 0 0
0 0 3 2 3 4 4 5 3 2 0 0 0 0 0 0 0 0 0 0 0 0 0 0 0 0 0 0 0 0 0 0 0 0 0 0 0 0 0 0 0 0 0 0 0 0 0
0 1 1 1 1 1 2 3 3 2 1 0 0 0 0 0 0 0 0 0 0 0 0 0 0 0 0 0 0 0 0 0 0 0 0 0 0 0 0 0 0 0 0 0 0 0 0
CIN
0 0 0 0 0 0 0 0 0 0 0 0 0 0 0 0 0 0 0 0 0 0 0 0 0 0 0 0 0 0 0 0 -190 -291 -165 -152 -137 -129 -72 -98 -109 -85 -66 0 -51 0 -41
0 0 0 0 0 0 0 0 -1 0 0 0 0 0 0 0 0 0 0 0 0 0 0 0 0 0 0 0 0 0 0 0 -364 -233 -133 -124 -154 -188 -139 -66 -54 -76 -80 0 -27 0 -27
0 0 0 0 0 0 0 0 0 0 0 0 0 0 0 0 0 0 0 0 0 0 0 0 0 0 0 0 0 0 0 -5 -325 -227 -127 -184 -201 -192 -187 -80 -145 -104 0 -56 -50 0 0
0 0 0 0 0 0 0 0 0 0 0 0 0 0 0 0 0 0 0 0 0 0 0 0 0 0 0 0 0 0 0 0 -322 -347 -233 -241 -261 -213 -174 -162 -110 -75 -63 -35 -58 -5 0
0 0 0 0 0 0 0 0 0 0 0 0 0 0 0 0 0 0 0 0 0 0 0 0 0 0 0 0 0 0 0 0 0 0 0 -283 -307 -225 -167 -131 -53 -79 -19 -35 -44 -43 0
0 0 0 0 0 0 0 0 0 0 0 0 0 0 0 0 0 0 0 0 0 0 0 0 0 0 0 0 0 0 0 0 0 0 0 0 -36 -169 -69 -9 -3 -9 -31 -35 -34 -57 -58
0 0 0 0 0 0 0 0 0 0 0 0 0 0 0 0 0 0 0 0 0 0 0 0 0 0 0 0 0 0 0 0 0 0 0 0 0 0 0 -71 -78 -40 -52 0 -37 -114 -104
0 0 0 0 0 0 0 0 0 0 0 0 0 0 0 0 0 0 0 0 0 0 0 0 0 0 0 0 0 0 0 0 0 0 0 0 -102 -98 -80 -121 -86 -66 -55 -30 0 -88 -105
0 0 0 0 0 0 0 0 0 0 0 0 0 0 0 0 0 0 0 0 0 0 0 0 0 0 0 0 0 0 0 0 0 0 0 -26 -76 0 0 -15 -91 -90 -65 -61 0 -105 -183
0 0 0 0 0 0 0 0 0 0 0 0 0 0 0 0 0 0 0 0 0 0 0 0 0 0 0 0 0 0 0 0 0 0 0 0 0 0 0 0 -94 0 -83 -87 -56 -68 -42
0 0 0 0 0 0 0 0 0 0 0 0 0 0 0 0 0 0 0 0 0 0 0 0 0 0 0 0 0 0 0 0 0 0 0 0 0 0 0 0 0 0 0 -66 -80 -75 -100
0 0 0 0 0 0 0 0 0 0 0 0 0 0 0 0 0 0 0 0 0 0 0 0 0 0 0 0 0 0 0 0 0 0 0 0 0 0 0 0 0 0 0 0 0 0 0
0 0 0 0 0 0 0 0 0 0 0 0 0 0 0 0 0 0 0 0 0 0 0 0 0 0 0 0 0 0 0 0 0 0 0 0 0 0 0 0 0 0 0 0 0 0 0
0 0 0 0 0 0 0 0 0 0 0 0 0 0 0 0 0 0 0 0 0 0 0 0 0 0 0 0 0 0 0 0 0 0 0 0 0 0 0 0 0 0 0 0 0 0 0
0 0 0 0 0 0 0 0 0 0 0 0 0 0 0 0 0 0 0 0 0 0 0 0 0 0 0 0 0 0 0 0 0 0 0 0 0 0 0 0 0 0 0 0 0 0 0
0 0 0 0 0 0 0 0 0 0 0 0 0 0 0 0 0 0 0 0 0 0 0 0 0 0 0 0 0 0 0 0 0 0 0 0 0 0 0 0 0 0 0 0 0 0 0
0 0 0 0 0 0 0 0 0 0 0 0 0 0 0 0 0 0 0 0 0 0 0 0 0 0 0 0 0 0 0 0 0 0 0 0 0 0 0 0 0 0 0 0 0 0 0
0 0 0 0 0 0 0 0 0 0 0 0 0 0 0 0 0 0 0 0 0 0 0 0 0 0 0 0 0 0 0 0 0 0 0 0 0 0 0 0 0 0 0 0 0 0 0
0 0 0 0 0 0 0 0 0 0 0 0 0 0 0 0 0 0 0 0 0 0 0 0 0 0 0 0 0 0 0 0 0 0 0 0 0 0 0 0 0 0 0 0 0 0 0
0 0 0 0 0 0 0 0 0 0 0 0 0 0 0 0 0 0 0 0 0 0 0 0 0 0 0 0 0 0 0 0 0 0 0 0 0 0 0 0 0 0 0 0 0 0 0
0 0 0 0 0 0 0 0 0 0 0 0 0 0 0 0 0 0 0 0 0 0 0 0 0 0 0 0 0 0 0 0 0 0 0 0 0 0 0 0 0 0 0 0 0 0 0
0 0 0 0 0 0 0 0 0 0 0 0 0 0 0 0 0 0 0 0 0 0 0 0 0 0 0 0 0 0 0 0 0 0 0 0 0 0 0 0 0 0 0 0 0 0 0
0 0 0 0 0 0 0 0 0 0 0 0 0 0 0 0 0 0 0 0 0 0 0 0 0 0 0 0 0 0 0 0 0 0 0 0 0 0 0 0 0 0 0 0 0 0 0
0 0 0 0 0 0 0 0 0 0 0 0 0 0 0 0 0 0 0 0 0 0 0 0 0 0 0 0 0 0 0 0 0 0 0 0 0 0 0 0 0 0 0 0 0 0 -307
0 0 0 0 0 0 0 0 0 0 0 0 0 0 0 0 0 0 0 0 0 0 0 0 0 0 0 0 0 0 0 0 0 0 0 0 0 0 0 0 0 0 0 0 0 0 0
0 0 0 0 0 0 0 0 0 0 0 0 0 0 0 0 0 0 0 0 0 0 0 0 0 0 0 0 0 0 0 0 0 0 0 0 0 0 0 0 0 0 0 0 0 0 0
0 0 0 0 0 0 0 0 0 0 0 0 0 0 0 0 0 0 0 0 0 0 0 0 0 0 0 0 0 0 0 0 0 0 0 0 0 0 0 0 0 0 0 0 0 0 0
0 0 0 0 0 0 0 0 0 0 0 0 0 0 0 0 0 0 0 0 0 0 0 0 0 0 0 0 0 0 0 0 0 0 0 0 0 0 0 0 0 0 0 0 0 0 0
0 0 0 0 0 0 0 0 0 0 0 0 0 0 0 0 0 0 0 0 0 0 0 0 0 0 0 0 0 0 0 0 0 0 0 0 0 0 0 0 0 0 0 0 0 0 0
Wind_Speed
18 18 19 20 20 21 21 21 21 21 21 21 20 19 19 18 18 17 17 18 19 19 19 18 17 16 14 18 18 19 26 25 25 23 21 21 19 15 10 13 16 13 10 18 26 28 28
19 19 20 20 21 21 21 21 22 22 21 21 21 20 19 19 18 18 17 18 19 19 20 19 18 17 17 18 16 22 26 24 25 23 20 18 17 13 12 15 14 14 12 20 25 27 27
20 20 20 20 21 21 22 22 22 22 22 22 21 20 19 19 18 18 18 18 18 20 20 20 19 18 17 18 18 21 24 23 24 22 19 17 12 15 15 14 12 12 13 17 24 25 21
20 21 21 21 21 21 22 22 23 23 23 22 21 21 20 19 19 18 18 18 18 19 20 21 20 17 17 18 9 16 22 23 25 22 20 15 16 14 14 14 16 14 12 20 20 23 22
21 21 21 21 22 22 22 22 23 23 23 23 22 21 21 20 19 19 19 19 19 16 9 12 10 9 13 12 14 19 18 19 22 23 20 17 15 14 16 15 14 14 16 15 19 16 24
23 22 22 22 22 22 22 23 23 23 24 23 23 22 21 21 20 19 19 17 11 11 12 11 10 9 11 10 11 12 21 23 11 21 19 12 15 11 14 13 13 12 14 19 20 17 20
25 24 24 23 23 23 23 24 24 24 24 24 23 23 22 21 21 19 15 11 12 12 10 7 9 6 10 13 10 9 12 15 17 7 10 15 12 13 15 16 14 12 13 14 26 22 19
26 26 25 25 25 24 24 24 25 25 25 24 24 23 22 22 22 20 13 10 11 14 19 10 11 8 24 15 9 6 6 7 4 10 9 9 7 16 18 22 16 6 11 18 20 22 20
27 27 27 27 27 26 26 26 26 26 25 25 25 24 22 22 22 14 9 11 11 21 17 16 5 4 6 6 4 3 7 4 4 2 6 7 15 20 18 7 9 20 19 5 9 14 19
28 28 29 28 28 28 28 28 27 27 27 26 26 24 22 21 15 13 12 13 20 12 16 14 7 8 5 7 10 2 3 3 7 6 9 8 22 21 21 13 6 15 22 6 10 16 17
29 29 29 30 29 30 30 30 30 29 29 28 27 25 23 20 17 11 10 19 15 13 15 11 9 13 5 3 11 2 7 7 7 9 14 17 25 25 22 20 10 19 16 11 8 7 16
30 30 30 31 31 31 31 31 31 31 31 30 29 26 24 16 18 21 20 17 10 13 14 11 9 8 4 1 9 9 5 13 14 25 23 30 26 25 23 22 20 19 13 13 16 12 14
31 31 31 32 32 32 33 33 33 33 33 32 30 28 21 15 15 16 18 12 10 12 14 11 9 8 6 3 6 12 11 0 3 15 23 29 29 26 26 26 18 15 16 17 14 13 20
31 32 32 33 33 33 34 34 35 35 35 34 31 25 14 14 15 17 12 11 11 11 13 19 9 7 7 3 9 12 8 5 14 16 16 18 20 18 13 10 9 15 10 10 14 16 23
31 32 32 33 34 34 34 35 36 36 36 35 30 20 19 18 8 16 9 12 13 11 17 18 10 7 4 8 11 10 11 15 2 4 8 10 18 21 22 11 3 12 9 12 14 18 21
32 32 33 33 34 34 35 35 36 36 36 33 25 21 18 11 4 8 13 17 16 15 19 16 11 11 6 7 2 4 7 19 27 5 12 16 18 16 14 9 10 10 7 15 15 17 18
32 32 33 33 34 34 35 36 36 36 35 29 19 18 15 4 8 14 18 19 22 22 20 18 17 13 11 10 10 13 16 18 13 16 12 15 16 19 15 13 14 12 15 16 12 11 14
32 32 33 33 33 34 35 35 35 36 34 22 18 16 13 6 14 19 24 20 21 23 21 26 19 17 14 15 15 15 15 18 21 12 6 11 14 18 17 13 12 11 13 14 13 13 11
31 32 32 33 33 34 35 35 35 35 30 21 18 16 11 14 17 20 23 24 25 28 27 20 20 16 15 17 16 16 16 18 20 14 12 7 15 17 19 15 15 15 16 16 15 15 14
31 31 32 32 33 33 34 34 34 34 28 16 16 16 16 17 18 19 23 28 26 22 28 23 21 19 15 18 17 18 19 18 19 15 14 11 15 16 15 16 15 18 20 18 17 18 19
31 31 31 31 32 33 33 33 33 33 25 18 17 16 16 20 22 25 24 23 27 23 19 18 19 20 19 20 21 21 21 21 18 20 17 15 18 17 15 15 14 17 19 19 20 19 19
30 30 31 31 32 32 32 32 32 32 24 16 17 18 19 20 21 24 20 21 22 20 21 20 19 20 18 22 23 23 23 22 22 22 19 19 19 18 22 21 16 20 20 20 22 22 20
30 30 30 30 31 31 32 32 31 30 23 17 18 17 17 19 20 19 21 21 21 17 18 13 13 17 19 19 20 22 21 22 22 23 23 22 21 23 28 24 22 27 23 18 17 21 18
30 30 30 30 30 30 30 30 29 28 25 18 18 17 19 21 19 20 22 19 19 19 17 16 17 19 19 21 21 21 22 24 24 24 21 22 23 23 27 24 31 24 12 10 12 17 17
30 30 29 30 30 30 30 29 29 28 27 19 19 18 18 21 22 22 23 21 19 18 17 17 19 19 20 21 24 27 27 27 27 27 25 23 21 25 26 25 19 15 20 20 18 20 18
28 28 28 29 30 30 29 29 28 28 27 19 19 20 16 17 20 22 23 22 22 21 20 19 20 21 21 25 27 32 34 30 29 25 23 23 24 26 25 27 27 20 20 22 15 23 19
27 28 29 29 28 29 29 29 29 28 27 23 19 21 17 19 19 20 21 23 22 22 23 23 25 24 22 26 29 29 30 25 28 27 25 22 22 25 26 28 27 24 23 19 25 23 15
29 29 29 29 29 29 29 29 29 28 28 25 19 21 20 21 23 19 20 21 22 22 24 24 22 23 22 24 24 24 25 24 24 23 23 22 21 23 23 26 28 24 18 22 13 11 13
28 29 29 29 30 30 30 30 29 29 28 26 19 24 24 18 21 23 26 23 20 20 22 22 22 20 18 20 21 21 23 22 22 24 20 23 20 19 21 19 16 16 11 10 10 13 16
Wind_Direction
329 328 328 327 328 327 324 321 319 316 313 309 304 299 292 288 284 275 262 250 232 223 220 223 235 245 195 148 151 174 145 152 149 138 133 135 131 130 177 159 156 165 214 189 153 136 137
328 327 326 327 327 326 325 322 320 317 313 309 304 298 293 286 279 270 263 253 235 225 219 221 231 245 141 142 212 147 148 140 155 152 165 150 159 146 180 168 171 157 191 171 171 143 145
328 327 326 326 325 324 324 324 321 318 314 309 302 297 290 283 275 266 259 250 236 224 216 219 234 203 147 152 215 130 150 158 161 158 193 189 3 296 267 207 225 207 204 190 147 177 179
326 325 324 323 323 322 322 320 318 317 314 309 302 294 288 280 272 265 258 245 230 216 210 213 227 155 150 244 48 113 149 193 195 179 206 242 213 224 224 237 257 254 242 176 185 189 191
324 322 320 321 320 318 316 318 318 317 314 310 303 295 289 281 275 268 261 245 226 239 279 313 337 63 130 303 131 154 139 141 169 207 206 207 318 17 323 334 207 240 216 271 201 234 188
326 322 319 318 317 315 314 315 316 314 313 309 305 298 289 282 278 272 267 256 360 331 320 331 350 14 149 111 107 118 159 167 99 214 234 150 301 354 323 353 287 344 281 259 241 251 232
329 324 320 317 314 312 312 312 312 312 311 308 304 300 291 283 280 278 291 339 335 344 355 56 28 31 20 330 113 104 123 139 156 56 109 190 79 136 164 174 344 310 11 357 246 233 254
330 327 322 318 314 311 310 309 309 310 308 304 300 296 290 283 277 274 306 336 5 342 311 199 161 151 204 314 338 99 87 112 91 136 351 342 121 186 210 223 182 9 6 41 182 194 213
330 328 324 321 316 313 311 308 307 306 304 301 298 293 286 279 269 297 317 328 341 306 330 320 339 350 1 32 17 83 121 127 356 5 338 333 191 270 241 56 101 188 184 10 182 251 235
329 327 325 321 319 315 312 309 306 304 302 300 295 290 283 281 300 290 306 302 248 341 329 334 342 313 349 3 327 100 123 327 313 297 303 277 241 270 263 283 37 179 212 319 143 269 220
328 326 324 323 320 317 314 310 307 305 301 299 294 286 278 274 276 290 307 268 283 324 322 359 3 312 332 6 338 338 282 292 299 292 292 278 258 269 260 268 99 198 321 124 131 139 318
327 325 323 322 321 318 315 312 309 305 301 299 293 284 278 296 271 241 252 272 316 329 321 349 8 14 37 30 329 317 295 282 284 257 271 256 254 256 251 270 252 246 310 348 305 319 284
325 324 323 322 320 318 317 314 311 306 302 299 293 282 287 293 274 271 267 289 320 318 327 347 354 21 95 64 326 302 290 284 282 283 273 256 250 249 244 252 279 291 301 293 300 311 222
324 323 323 321 320 319 318 315 312 309 306 303 294 291 305 289 278 275 288 290 307 324 329 309 347 23 99 350 303 295 320 138 278 280 286 280 273 279 308 327 327 302 335 336 308 300 270
321 321 322 321 320 319 317 316 314 311 309 306 298 304 292 281 161 273 280 281 295 304 302 291 316 345 11 298 307 304 293 161 133 298 293 290 277 264 258 315 78 306 305 321 326 322 306
322 322 321 321 320 319 318 316 314 312 311 307 304 298 291 302 131 278 270 271 277 289 291 301 305 307 347 320 62 340 315 275 198 160 269 276 275 285 298 326 319 311 344 303 321 316 310
324 323 322 322 321 320 318 317 317 315 311 304 306 296 300 295 278 270 265 269 270 277 295 289 288 307 308 313 316 300 291 286 305 285 268 280 286 277 303 309 319 317 316 314 321 325 321
324 323 323 322 322 320 319 318 318 317 314 315 299 292 297 272 269 271 266 272 278 278 290 281 287 287 296 295 295 304 301 290 290 294 269 268 293 285 286 313 318 349 339 332 317 319 327
324 323 323 323 322 322 322 320 319 319 315 306 292 290 282 280 277 275 275 275 277 275 276 283 283 287 293 292 292 297 299 305 307 302 288 262 279 286 288 293 303 322 325 328 322 314 310
326 324 324 323 323 324 325 324 322 322 316 319 292 282 281 275 283 287 284 277 276 281 277 278 277 281 289 292 300 294 296 301 306 307 305 286 286 280 286 297 308 302 312 320 321 308 304
326 325 324 324 324 325 325 325 325 325 317 313 298 288 287 274 274 284 285 279 276 279 285 283 278 276 280 286 289 291 296 296 307 309 300 293 279 288 297 309 316 314 312 308 306 308 304
327 326 327 328 327 325 326 328 328 328 319 318 296 290 287 285 285 285 286 280 276 278 284 279 278 284 286 286 287 288 291 291 291 298 301 300 285 288 287 294 303 307 311 306 299 299 303
329 327 327 327 328 328 329 331 332 333 330 321 309 301 292 287 287 285 287 283 282 282 295 290 288 289 291 291 294 294 293 291 291 290 291 289 284 283 281 290 295 292 303 307 306 305 300
327 327 327 327 327 328 328 330 332 332 335 331 324 305 290 280 287 286 287 286 287 287 285 291 296 290 291 299 299 298 293 289 287 285 289 287 287 286 283 289 283 296 317 327 324 312 310
327 327 325 325 324 325 327 327 329 329 328 330 329 318 300 282 287 285 286 286 290 293 292 294 296 299 300 301 293 289 289 291 288 282 279 281 284 284 282 283 292 288 292 295 296 305 309
323 322 321 322 323 324 325 326 326 327 326 328 329 325 312 296 291 289 285 289 285 288 291 294 303 304 303 291 288 282 280 286 286 288 291 279 277 274 280 280 277 287 295 302 298 294 301
316 318 318 319 319 320 323 325 325 325 324 324 330 329 318 299 299 300 289 287 291 289 287 290 292 295 304 289 284 282 282 285 279 281 284 283 279 269 275 280 286 294 296 302 285 292 301
326 322 321 320 320 319 319 320 321 323 323 325 325 331 324 303 294 300 302 296 294 293 286 292 292 296 298 291 288 287 284 285 283 286 286 283 280 278 280 279 282 307 304 293 304 312 311
320 321 320 321 320 319 320 320 320 321 323 325 330 324 320 315 302 300 292 297 296 299 295 296 292 297 301 295 292 290 287 290 286 280 295 284 287 285 289 289 312 328 339 340 333 320 316